Weather History for KFSM - January, 2012

Change the Weather History Date:

Saturday, January 14, 2012

  Actual Average Record
Temperature  
Mean Temperature 41 °F 39 °F  
Max Temperature 57 °F 50 °F 78 °F (1932)
Min Temperature 24 °F 29 °F -2 °F (1892)
Degree Days  
Heating Degree Days 24 26  
Month to date heating degree days 292 364  
Since 1 July heating degree days 1347 1663  
Moisture  
Dew Point 23 °F    
Average Humidity 53    
Maximum Humidity 81    
Minimum Humidity 24    
Precipitation  
Precipitation 0.00 in 0.08 in 1.20 in (1898)
Month to date precipitation 1.07 1.22  
Year to date precipitation 1.07 1.22  
Sea Level Pressure  
Sea Level Pressure 30.22 in    
Wind  
Wind Speed 6 mph (West)    
Max Wind Speed 21 mph    
Max Gust Speed 24 mph    
Visibility 10 miles    
Events      
T = Trace of Precipitation, MM = Missing Value Source: NWS Daily Summary

Daily Weather History Graph

Daily Weather History Graph

Search for Another Location

Airport or City:

Trip Planner

Search our weather history database for the weather conditions in past years. The results will help you decide how hot, cold, wet, or windy it might be!

Date:

Astronomy

Jan. 14, 2012 Rise Set
Actual Time 7:26 AM CST 5:26 PM CST
Civil Twilight 6:58 AM CST 5:54 PM CST
Nautical Twilight 6:27 AM CST 6:25 PM CST
Astronomical Twilight 5:56 AM CST 6:56 PM CST
Moon 11:32 PM CST (1/14) 10:26 AM CST (1/14)
Length of Visible Light 10h 56m
Length of Day
10h 00m
Waning Gibbous, 68% of the Moon is Illuminated
Jan 14
Waning Gibbous
Jan 16
Last Quarter
Jan 23
New
Jan 30
First Quarter
Feb 7
Full

Hourly Weather History & Observations

Time (CST) Temp. Windchill Dew Point Humidity Pressure Visibility Wind Dir Wind Speed Gust Speed Precip Events Conditions
12:53 AM 28.0 °F - 18.0 °F 66% 30.17 in 10.0 mi Calm Calm - N/A   Clear
1:53 AM 28.9 °F 23.9 °F 19.0 °F 67% 30.16 in 10.0 mi Variable 4.6 mph - N/A   Clear
2:53 AM 28.0 °F - 19.0 °F 69% 30.16 in 10.0 mi Calm Calm - N/A   Clear
3:53 AM 27.0 °F - 19.0 °F 72% 30.14 in 10.0 mi Calm Calm - N/A   Clear
4:53 AM 27.0 °F - 19.0 °F 72% 30.13 in 10.0 mi Calm Calm - N/A   Clear
5:53 AM 26.1 °F - 19.0 °F 75% 30.12 in 10.0 mi Calm Calm - N/A   Clear
6:53 AM 25.0 °F 20.7 °F 19.0 °F 78% 30.14 in 10.0 mi North 3.5 mph - N/A   Clear
7:53 AM 28.0 °F 22.8 °F 19.0 °F 69% 30.17 in 10.0 mi SSE 4.6 mph - N/A   Clear
8:53 AM 33.8 °F 29.6 °F 23.0 °F 65% 30.19 in 10.0 mi WSW 4.6 mph - N/A   Clear
9:53 AM 41.0 °F 33.1 °F 26.1 °F 55% 30.23 in 10.0 mi West 15.0 mph - N/A   Clear
10:53 AM 46.9 °F - 28.0 °F 48% 30.24 in 10.0 mi West 12.7 mph - N/A   Clear
11:53 AM 51.1 °F - 27.0 °F 39% 30.23 in 10.0 mi West 13.8 mph - N/A   Clear
12:53 PM 55.0 °F - 21.9 °F 28% 30.21 in 10.0 mi West 16.1 mph 24.2 mph N/A   Clear
1:53 PM 55.9 °F - 21.0 °F 26% 30.21 in 10.0 mi WNW 15.0 mph 23.0 mph N/A   Clear
2:53 PM 57.0 °F - 21.0 °F 25% 30.22 in 10.0 mi WNW 13.8 mph 24.2 mph N/A   Clear
3:53 PM 55.9 °F - 21.0 °F 26% 30.22 in 10.0 mi WNW 12.7 mph - N/A   Clear
4:53 PM 52.0 °F - 24.1 °F 34% 30.24 in 10.0 mi West 10.4 mph - N/A   Clear
5:53 PM 46.9 °F - 23.0 °F 39% 30.27 in 10.0 mi West 4.6 mph - N/A   Clear
6:53 PM 43.0 °F 41.3 °F 25.0 °F 49% 30.28 in 10.0 mi WSW 3.5 mph - N/A   Clear
7:53 PM 41.0 °F - 26.1 °F 55% 30.30 in 10.0 mi Calm Calm - N/A   Clear
8:53 PM 33.1 °F 30.0 °F 25.0 °F 72% 30.31 in 10.0 mi East 3.5 mph - N/A   Clear
9:53 PM 34.0 °F - 26.1 °F 73% 30.32 in 10.0 mi Calm Calm - N/A   Clear
10:53 PM 33.1 °F - 26.1 °F 75% 30.32 in 10.0 mi Calm Calm - N/A   Clear
11:53 PM 30.9 °F 26.2 °F 25.0 °F 79% 30.32 in 10.0 mi NE 4.6 mph - N/A   Clear